Portada
METAR-TAF:

METAR-TAF

Aeropuertos :

Tetuán, Marruecos

Aeropuerto Tétouan-Martil Sania Ramel

latitud: 35-35N, longitud: 005-20W, altitud: 10 m

Observación

El informe se hizo hace 25 minutos, a las 18:00 UTC
Viento 11 kt del este
Temperatura 23°C
Humedad 78%
Presión 1018 hPa
Visibilidad: 8000 m
Nubes dispersas a una altura de 1000 ft

METAR: GMTN 231800Z 09011KT 8000 SCT010 23/19 Q1018 NOSIG

Hora: 19:25 (18:25 UTC)


TAF: falta

Observaciones y pronósticos meteorológicos de más de 4000 aeropuertos (mensajes METAR y TAF).

Los puntos amarillos y rojos representan las estaciones disponibles.

Ponga el ratón en el punto deseado para ver el nombre de la estación.

Haga clic para ver las observaciones y los pronósticos meteorológicos.

Para cambiar el mapa : haga clic en los botones verdes con una cruz de color negro para hacer un zoom, en el botón verde con un guión para alejar o en las flechas verdes para mapas adyacentes.


METAR-TAF: